Newton, KS

3:04 PM CDT on June 26, 2017 (GMT -0500)
Newton City County

Weather History for KEWK - April, 2014

Change the Weather History Date:

Friday, April 25, 2014

  Actual Average Record
Temperature  
Mean Temperature 62 °F -  
Max Temperature 80 °F 64 °F 91 °F (2012)
Min Temperature 44 °F 45 °F 35 °F (2013)
Degree Days  
Heating Degree Days 3    
Growing Degree Days 12 (Base 50)    
Moisture  
Dew Point 36 °F    
Average Humidity 40    
Maximum Humidity 62    
Minimum Humidity 20    
Precipitation  
Precipitation 0.00 in - - ()
Sea Level Pressure  
Sea Level Pressure 29.90 in    
Wind  
Wind Speed 14 mph (SSW)    
Max Wind Speed 30 mph    
Max Gust Speed 37 mph    
Visibility 10 miles    
Events      
Averages and records for this station are not official NWS values.
T = Trace of Precipitation, MM = Missing Value Source: NWS Daily Summary

Daily Weather History Graph

Daily Weather History Graph

Search for Another Location

Airport or City:

Trip Planner

Search our weather history database for the weather conditions in past years. The results will help you decide how hot, cold, wet, or windy it might be!

Date:

Astronomy

Apr. 25, 2014 Rise Set
Actual Time 6:40 AM CDT 8:14 PM CDT
Civil Twilight 6:12 AM CDT 8:42 PM CDT
Nautical Twilight 5:38 AM CDT 9:16 PM CDT
Astronomical Twilight 5:03 AM CDT 9:51 PM CDT
Moon 4:25 AM CDT (4/25) 4:41 PM CDT (4/25)
Length of Visible Light 14h 30m
Length of Day
13h 34m
Waning Crescent, 15% of the Moon is Illuminated
Apr 25
Waning Crescent
Apr 29
New
May 6
First Quarter
May 14
Full
May 21
Last Quarter

Hourly Weather History & Observations

Time (CDT) Temp. Windchill Dew Point Humidity Pressure Visibility Wind Dir Wind Speed Gust Speed Precip Events Conditions
12:15 AM 46.4 °F 41.9 °F 33.8 °F 62% 29.93 in 10.0 mi South 9.2 mph - N/A   Clear
12:35 AM 48.2 °F - 33.8 °F 58% 29.93 in 10.0 mi SSW 8.1 mph - N/A   Clear
12:55 AM 50.0 °F - 35.6 °F 58% 29.93 in 10.0 mi SSW 10.4 mph - N/A   Clear
1:15 AM 48.2 °F - 35.6 °F 62% 29.93 in 10.0 mi SSW 10.4 mph - N/A   Clear
1:35 AM 48.2 °F - 33.8 °F 58% 29.93 in 10.0 mi SSW 8.1 mph - N/A   Clear
1:55 AM 48.2 °F - 33.8 °F 58% 29.93 in 10.0 mi SSW 10.4 mph - N/A   Clear
2:15 AM 48.2 °F - 33.8 °F 58% 29.93 in 10.0 mi SW 11.5 mph - N/A   Clear
2:35 AM 46.4 °F 41.5 °F 33.8 °F 62% 29.93 in 10.0 mi SW 10.4 mph - N/A   Clear
2:55 AM 46.4 °F 41.9 °F 33.8 °F 62% 29.93 in 10.0 mi SW 9.2 mph - N/A   Clear
3:15 AM 46.4 °F 41.9 °F 33.8 °F 62% 29.93 in 10.0 mi SW 9.2 mph - N/A   Clear
3:35 AM 46.4 °F 41.5 °F 33.8 °F 62% 29.93 in 10.0 mi SW 10.4 mph - N/A   Clear
3:55 AM 46.4 °F 41.5 °F 33.8 °F 62% 29.93 in 10.0 mi SW 10.4 mph - N/A   Clear
4:15 AM 46.4 °F 41.1 °F 33.8 °F 62% 29.94 in 10.0 mi SW 11.5 mph - N/A   Clear
4:35 AM 46.4 °F 41.5 °F 33.8 °F 62% 29.95 in 10.0 mi SW 10.4 mph - N/A   Clear
4:55 AM 44.6 °F 39.7 °F 32.0 °F 61% 29.95 in 10.0 mi SW 9.2 mph - N/A   Clear
5:15 AM 44.6 °F 39.7 °F 32.0 °F 61% 29.95 in 10.0 mi SW 9.2 mph - N/A   Clear
5:35 AM 44.6 °F 39.2 °F 32.0 °F 61% 29.95 in 10.0 mi SSW 10.4 mph - N/A   Clear
5:55 AM 46.4 °F 41.1 °F 32.0 °F 57% 29.95 in 10.0 mi SSW 11.5 mph - N/A   Clear
6:15 AM 44.6 °F 38.8 °F 32.0 °F 61% 29.95 in 10.0 mi SSW 11.5 mph - N/A   Clear
6:35 AM 44.6 °F 39.2 °F 32.0 °F 61% 29.95 in 10.0 mi SSW 10.4 mph - N/A   Clear
6:55 AM 44.6 °F 39.7 °F 32.0 °F 61% 29.95 in 10.0 mi SSW 9.2 mph - N/A   Clear
7:15 AM 46.4 °F 41.9 °F 33.8 °F 62% 29.96 in 10.0 mi SSW 9.2 mph - N/A   Clear
7:35 AM 46.4 °F 41.9 °F 33.8 °F 62% 29.96 in 10.0 mi SSW 9.2 mph - N/A   Clear
7:55 AM 50.0 °F - 33.8 °F 54% 29.96 in 10.0 mi SSW 13.8 mph - N/A   Clear
8:15 AM 51.8 °F - 35.6 °F 54% 29.96 in 10.0 mi SSW 13.8 mph - N/A   Clear
8:35 AM 53.6 °F - 35.6 °F 51% 29.97 in 10.0 mi SSW 13.8 mph 20.7 mph N/A   Clear
8:55 AM 55.4 °F - 35.6 °F 47% 29.97 in 10.0 mi SSW 18.4 mph 23.0 mph N/A   Clear
9:15 AM 57.2 °F - 37.4 °F 48% 29.97 in 10.0 mi SW 16.1 mph 21.9 mph N/A   Clear
9:35 AM 60.8 °F - 37.4 °F 42% 29.97 in 10.0 mi SW 18.4 mph 24.2 mph N/A   Clear
9:55 AM 62.6 °F - 37.4 °F 39% 29.97 in 10.0 mi SW 18.4 mph 23.0 mph N/A   Clear
10:15 AM 64.4 °F - 37.4 °F 37% 29.97 in 10.0 mi SW 21.9 mph - N/A   Clear
10:35 AM 66.2 °F - 39.2 °F 37% 29.97 in 10.0 mi SW 18.4 mph - N/A   Clear
10:55 AM 68.0 °F - 39.2 °F 35% 29.97 in 10.0 mi SW 20.7 mph 26.5 mph N/A   Clear
11:15 AM 69.8 °F - 37.4 °F 31% 29.97 in 10.0 mi SSW 26.5 mph - N/A   Clear
11:35 AM 71.6 °F - 37.4 °F 29% 29.96 in 10.0 mi SW 19.6 mph 28.8 mph N/A   Clear
11:55 AM 73.4 °F - 37.4 °F 27% 29.96 in 10.0 mi SW 21.9 mph 28.8 mph N/A   Clear
12:15 PM 73.4 °F - 37.4 °F 27% 29.95 in 10.0 mi SSW 23.0 mph 29.9 mph N/A   Clear
12:35 PM 73.4 °F - 37.4 °F 27% 29.94 in 10.0 mi SSW 20.7 mph - N/A   Clear
12:55 PM 75.2 °F - 37.4 °F 25% 29.92 in 10.0 mi SSW 26.5 mph 33.4 mph N/A   Clear
1:15 PM 77.0 °F - 37.4 °F 24% 29.91 in 10.0 mi SSW 21.9 mph 32.2 mph N/A   Clear
1:35 PM 77.0 °F - 37.4 °F 24% 29.90 in 10.0 mi SSW 24.2 mph 32.2 mph N/A   Clear
1:55 PM 78.8 °F - 37.4 °F 23% 29.90 in 10.0 mi SSW 19.6 mph 31.1 mph N/A   Clear
2:15 PM 78.8 °F - 37.4 °F 23% 29.89 in 10.0 mi South 24.2 mph 31.1 mph N/A   Clear
2:35 PM 78.8 °F - 37.4 °F 23% 29.88 in 10.0 mi South 24.2 mph 31.1 mph N/A   Clear
2:55 PM 78.8 °F - 35.6 °F 21% 29.88 in 10.0 mi SSW 25.3 mph 31.1 mph N/A   Clear
3:15 PM 80.6 °F - 35.6 °F 20% 29.87 in 10.0 mi SSW 29.9 mph 36.8 mph N/A   Clear
3:35 PM 80.6 °F - 35.6 °F 20% 29.87 in 10.0 mi SSW 26.5 mph 36.8 mph N/A   Clear
3:55 PM 80.6 °F - 37.4 °F 21% 29.87 in 10.0 mi South 26.5 mph 34.5 mph N/A   Clear
4:15 PM 80.6 °F - 37.4 °F 21% 29.86 in 10.0 mi SSW 24.2 mph 33.4 mph N/A   Clear
4:35 PM 80.6 °F - 35.6 °F 20% 29.84 in 10.0 mi SSW 21.9 mph 35.7 mph N/A   Clear
4:55 PM 78.8 °F - 35.6 °F 21% 29.84 in 10.0 mi South 23.0 mph 32.2 mph N/A   Clear
5:15 PM 78.8 °F - 35.6 °F 21% 29.84 in 10.0 mi SSW 23.0 mph 31.1 mph N/A   Clear
5:35 PM 78.8 °F - 37.4 °F 23% 29.83 in 10.0 mi SSW 17.3 mph 27.6 mph N/A   Clear
5:55 PM 77.0 °F - 37.4 °F 24% 29.83 in 10.0 mi SSW 23.0 mph - N/A   Clear
6:15 PM 78.8 °F - 39.2 °F 24% 29.82 in 10.0 mi South 19.6 mph 25.3 mph N/A   Clear
6:35 PM 77.0 °F - 37.4 °F 24% 29.81 in 10.0 mi South 16.1 mph - N/A   Clear
6:55 PM 77.0 °F - 37.4 °F 24% 29.80 in 10.0 mi South 21.9 mph 26.5 mph N/A   Clear
7:15 PM 77.0 °F - 37.4 °F 24% 29.80 in 10.0 mi South 19.6 mph - N/A   Clear
7:35 PM 75.2 °F - 37.4 °F 25% 29.80 in 10.0 mi South 15.0 mph 26.5 mph N/A   Clear
7:55 PM 73.4 °F - 37.4 °F 27% 29.80 in 10.0 mi South 13.8 mph 19.6 mph N/A   Clear
8:15 PM 71.6 °F - 37.4 °F 29% 29.80 in 10.0 mi South 12.7 mph - N/A   Clear
8:35 PM 71.6 °F - 37.4 °F 29% 29.80 in 10.0 mi South 12.7 mph - N/A   Clear
8:55 PM 69.8 °F - 37.4 °F 31% 29.80 in 10.0 mi South 12.7 mph - N/A   Clear
9:15 PM 68.0 °F - 37.4 °F 33% 29.81 in 10.0 mi South 11.5 mph - N/A   Clear
9:35 PM 66.2 °F - 37.4 °F 35% 29.82 in 10.0 mi South 10.4 mph - N/A   Clear
9:55 PM 64.4 °F - 37.4 °F 37% 29.83 in 10.0 mi South 10.4 mph - N/A   Clear
10:15 PM 64.4 °F - 37.4 °F 37% 29.83 in 10.0 mi SSE 11.5 mph - N/A   Clear
10:35 PM 64.4 °F - 37.4 °F 37% 29.83 in 10.0 mi SSE 11.5 mph - N/A   Clear
10:55 PM 62.6 °F - 37.4 °F 39% 29.83 in 10.0 mi SSE 10.4 mph - N/A   Clear
11:15 PM 62.6 °F - 37.4 °F 39% 29.83 in 10.0 mi SSE 9.2 mph - N/A   Clear
11:35 PM 60.8 °F - 37.4 °F 42% 29.83 in 10.0 mi SSE 9.2 mph - N/A   Clear